Wind_Speed
29 29 30 30 30 30 29 28 28 27 26 24 22 19 18 17 16 15 14 13 13 12 12 12 13 13 13 12 12 12 11 11 10 9 8 6 4 4 3 3 3 3
30 30 30 30 31 30 30 29 29 29 28 26 24 21 20 20 19 18 16 15 15 14 14 14 15 16 15 14 14 14 13 13 13 12 10 9 7 6 5 5 4 3
30 30 30 30 30 31 30 30 30 30 29 28 26 24 22 21 20 19 18 18 17 16 16 16 16 17 17 17 16 15 15 15 15 14 13 11 9 8 8 7 6 5
31 30 30 29 30 30 31 31 31 31 31 30 27 25 24 23 22 21 20 20 19 19 18 17 17 18 19 19 18 17 17 17 16 16 15 14 12 11 10 9 8 7
31 30 30 29 29 30 32 32 32 32 31 30 28 27 25 24 23 22 21 21 21 20 20 19 19 19 20 20 20 19 18 18 18 18 16 15 15 13 12 12 10 9
32 31 30 30 29 30 32 32 32 31 30 30 29 28 27 26 24 23 22 22 21 21 21 20 20 19 20 21 21 21 20 19 19 19 18 17 16 16 15 14 13 12
32 32 32 31 30 30 31 32 31 31 30 30 30 29 28 27 26 25 23 22 22 21 21 21 21 20 20 20 21 22 22 21 21 20 19 18 18 18 17 16 15 14
32 33 33 32 32 31 31 32 31 30 30 30 29 29 29 28 27 26 24 23 22 21 21 21 20 20 20 20 20 22 22 22 22 21 20 19 19 19 18 18 18 16
33 33 34 33 33 33 32 32 31 31 30 30 30 29 29 28 28 27 26 24 23 22 21 21 20 19 19 20 20 21 22 23 22 22 22 21 20 19 20 20 19 18
33 33 34 35 34 34 33 33 32 32 32 31 30 30 30 29 29 28 27 26 24 22 21 20 19 19 19 19 20 20 21 22 22 22 22 21 20 20 21 21 20 19
33 33 35 35 35 35 34 33 33 33 32 32 31 31 30 30 30 29 28 26 24 22 21 20 19 18 18 19 20 21 21 22 22 22 22 21 20 20 21 20 20 18
33 33 34 35 35 35 34 34 34 33 32 32 32 31 30 30 30 30 28 27 24 23 21 20 19 19 19 19 20 21 22 22 23 23 22 21 20 19 19 19 17 16
34 33 33 34 34 34 34 34 34 33 32 31 31 31 30 30 30 29 28 27 25 24 22 21 21 20 20 20 21 22 22 23 23 22 21 20 19 18 18 17 14 13
33 33 32 32 33 34 34 34 34 33 32 31 31 30 30 29 29 28 28 27 27 25 24 22 22 22 22 21 21 22 23 22 22 21 20 19 18 18 17 15 13 13
32 33 32 32 33 34 34 34 34 33 32 32 31 30 30 29 28 28 28 28 27 26 25 25 24 24 23 21 21 22 22 22 21 20 20 19 19 18 17 16 14 14
30 31 32 32 32 32 33 34 33 33 32 31 30 30 30 29 29 29 28 28 28 27 27 27 26 25 24 23 22 22 22 22 22 21 21 20 19 19 18 17 16 15
30 30 31 32 32 31 32 32 32 32 31 30 29 29 29 29 29 29 28 27 27 28 28 28 26 25 25 24 23 23 23 24 24 23 23 21 20 20 19 18 18 17
30 29 30 31 31 31 31 31 31 31 31 30 29 28 27 28 28 28 27 27 27 27 28 28 26 25 25 26 25 24 25 26 26 25 24 23 22 21 20 20 20 19
32 31 29 29 30 30 30 30 30 30 30 29 28 27 26 27 27 27 26 26 26 26 26 26 26 25 25 26 26 26 26 27 28 27 26 25 23 23 22 22 21 20
33 32 30 29 29 29 29 29 29 29 29 28 28 27 27 27 27 26 26 26 25 24 24 25 25 24 24 25 26 27 28 28 29 29 28 27 25 24 23 23 22 21
33 32 30 28 28 28 28 29 29 28 28 28 28 27 27 27 27 26 26 26 25 25 24 24 23 23 23 24 25 26 28 29 30 31 31 29 27 26 25 24 23 23
29 28 28 27 27 28 28 29 29 28 28 27 27 27 28 28 27 27 27 27 26 26 25 24 23 22 23 24 25 26 28 29 30 30 31 30 28 27 26 26 25 25
24 23 23 24 24 25 26 27 27 27 27 27 27 27 27 27 27 27 27 26 27 27 27 26 24 24 24 25 25 26 28 29 29 30 31 30 29 28 28 27 27 27
25 24 24 24 23 23 23 23 23 23 24 25 25 25 25 25 25 25 25 25 26 27 27 27 26 26 27 27 27 28 29 29 29 30 31 31 30 29 29 29 29 28
30 30 29 28 27 26 25 24 23 22 22 22 22 22 22 22 22 23 23 24 25 25 26 26 26 27 27 28 29 30 30 30 30 31 32 31 30 30 30 30 30 29
34 34 33 32 32 31 30 29 27 26 25 24 23 22 22 21 21 22 22 22 23 23 24 25 25 26 26 27 29 30 31 31 31 32 32 31 30 30 31 31 31 31
Wind_Direction
215 215 216 216 215 214 212 210 210 212 213 212 209 205 203 204 207 208 208 211 216 219 221 220 218 219 222 225 228 229 228 228 227 226 226 227 218 199 188 174 153 135
215 216 216 217 216 215 212 211 211 211 213 213 210 207 205 206 207 208 209 212 217 222 224 223 219 219 220 222 225 227 228 228 228 228 229 230 225 218 215 207 192 184
215 216 217 218 218 216 213 212 212 212 213 213 212 210 209 209 209 210 211 215 219 222 225 224 221 219 220 221 223 224 226 227 228 228 228 230 229 226 227 224 214 212
215 216 217 219 219 218 215 213 213 213 214 214 213 213 213 212 212 214 215 218 221 223 225 225 222 221 220 221 223 223 225 226 227 227 227 229 230 229 230 231 227 224
215 216 217 218 218 218 215 213 212 214 215 216 216 215 215 215 215 216 218 221 224 225 226 226 225 223 222 222 222 223 224 226 227 227 227 228 229 229 230 233 232 230
214 215 215 216 217 217 216 213 212 213 215 216 217 217 217 217 217 218 219 221 224 226 226 227 227 227 225 224 223 222 223 225 227 229 228 227 229 230 231 234 235 234
214 214 214 214 216 216 215 212 211 211 213 215 216 217 218 218 219 220 221 222 223 225 227 228 229 229 229 226 223 222 223 224 226 229 229 228 228 230 232 235 236 235
215 214 214 214 215 215 214 211 209 209 210 213 214 217 218 219 221 223 224 225 225 226 228 230 231 231 231 229 224 221 222 223 225 228 230 229 228 230 232 234 236 235
216 215 214 214 215 215 214 211 209 209 209 211 213 216 219 221 223 226 227 228 228 227 228 230 233 233 233 232 227 221 220 222 224 226 229 230 229 229 231 234 235 235
218 216 215 215 215 215 215 213 211 211 211 212 213 216 220 222 225 228 230 231 230 229 229 230 232 233 234 233 229 223 219 219 221 224 227 229 228 229 231 234 235 235
220 218 216 216 217 217 216 215 215 214 214 214 215 218 220 223 227 229 231 233 232 231 231 230 231 233 234 232 229 224 219 218 219 221 224 226 228 229 231 234 236 236
221 220 218 218 218 218 218 218 219 219 219 218 218 220 221 223 227 230 232 234 234 234 233 231 230 232 233 232 228 224 220 218 218 219 222 225 227 228 231 233 235 234
221 222 221 219 219 219 219 220 221 222 223 223 223 223 223 225 227 230 232 233 234 234 234 231 230 231 233 231 227 224 222 220 218 219 221 222 222 222 224 225 225 223
221 222 222 221 220 220 220 221 222 223 224 225 225 226 227 228 229 230 231 232 232 234 234 232 230 229 231 230 227 225 222 221 219 218 216 213 211 210 212 215 215 217
221 222 222 222 222 221 221 222 223 224 225 226 227 228 229 231 232 232 232 232 232 232 233 233 231 229 229 228 226 224 221 219 216 210 205 202 203 207 211 214 218 221
221 221 221 222 223 223 223 224 224 224 226 227 228 229 230 231 233 234 234 233 233 233 234 234 231 229 228 227 225 221 217 212 207 202 200 202 206 211 215 218 222 225
222 221 221 221 222 223 224 225 225 226 226 227 228 229 230 231 233 235 235 236 236 235 235 236 234 230 227 226 224 220 214 209 205 203 205 208 212 215 218 221 225 228
223 221 221 221 221 222 224 225 226 226 226 227 227 228 230 231 233 235 236 237 237 237 236 237 236 232 228 226 225 221 217 212 209 209 212 215 217 219 221 223 226 230
222 222 222 221 221 221 222 224 225 225 225 226 227 228 229 230 232 234 235 236 237 236 236 237 237 234 231 228 226 224 222 219 217 216 218 220 222 223 224 226 230 235
220 222 223 221 220 220 221 222 223 224 224 224 226 227 228 229 230 232 233 235 236 236 236 236 236 235 234 232 229 227 226 225 224 223 224 225 226 226 228 231 235 240
218 221 221 219 217 218 219 221 222 222 222 223 224 225 227 229 230 231 232 234 235 236 236 236 235 234 234 234 233 231 230 230 228 228 228 229 229 230 232 235 240 245
209 212 213 213 213 215 217 219 221 221 222 223 224 225 227 228 229 230 231 232 233 234 235 235 234 232 232 233 234 235 234 233 231 231 231 232 232 233 236 239 243 247
193 196 199 202 206 211 215 218 220 221 222 224 225 227 228 229 230 231 232 232 233 234 236 236 234 233 232 232 233 235 235 235 234 234 234 235 235 236 240 243 245 248
197 197 198 202 205 209 212 214 216 218 220 222 224 227 228 230 231 232 232 232 233 234 236 236 235 234 233 233 233 234 236 236 236 236 237 238 238 240 243 245 247 249
209 210 211 213 216 217 217 216 216 215 216 218 221 223 225 227 229 229 229 230 231 233 234 234 234 233 232 232 233 234 235 236 237 237 238 239 240 242 244 245 247 249
215 216 217 219 222 223 223 223 223 222 221 222 223 224 225 226 227 228 228 228 230 231 232 232 232 231 230 231 232 233 234 235 236 237 238 240 241 243 244 245 247 249
Height
3208 3210 3212 3214 3216 3218 3220 3222 3223 3225 3227 3229 3231 3233 3235 3236 3237 3238 3239 3241 3242 3243 3243 3244 3245 3246 3247 3248 3249 3250 3251 3251 3252 3252 3253 3254 3254 3255 3255 3255 3256 3256
3206 3208 3210 3212 3214 3216 3218 3220 3222 3223 3225 3227 3229 3231 3233 3234 3235 3236 3238 3239 3240 3241 3242 3243 3244 3245 3246 3247 3248 3249 3250 3251 3251 3252 3252 3253 3254 3254 3255 3255 3256 3256
3204 3206 3208 3210 3212 3214 3216 3218 3220 3222 3223 3225 3227 3229 3230 3232 3233 3234 3236 3237 3238 3240 3241 3242 3243 3244 3245 3246 3247 3248 3249 3250 3250 3251 3252 3252 3253 3254 3254 3255 3256 3256
3201 3204 3206 3208 3210 3212 3214 3216 3218 3220 3221 3223 3225 3227 3228 3230 3231 3232 3234 3235 3237 3238 3239 3240 3241 3242 3243 3244 3245 3247 3248 3248 3249 3250 3251 3252 3253 3253 3254 3254 3255 3256
3199 3202 3204 3206 3208 3210 3211 3213 3215 3217 3220 3222 3223 3225 3226 3228 3229 3230 3232 3233 3235 3236 3237 3238 3239 3241 3242 3242 3244 3245 3246 3247 3248 3249 3250 3251 3252 3252 3253 3254 3255 3255
3197 3199 3202 3204 3206 3208 3209 3211 3213 3215 3218 3220 3221 3223 3224 3226 3227 3228 3230 3231 3233 3234 3235 3236 3237 3239 3240 3241 3242 3243 3244 3245 3246 3247 3249 3250 3251 3252 3252 3253 3254 3255
3194 3197 3199 3201 3203 3205 3207 3209 3211 3213 3216 3217 3219 3221 3222 3224 3225 3226 3228 3229 3231 3232 3233 3234 3235 3236 3237 3238 3240 3241 3242 3243 3244 3246 3247 3248 3250 3250 3251 3252 3253 3254
3192 3194 3197 3199 3201 3203 3205 3207 3209 3211 3213 3215 3217 3219 3220 3222 3223 3225 3226 3227 3229 3230 3231 3232 3233 3234 3235 3236 3237 3239 3240 3241 3242 3244 3245 3246 3248 3249 3250 3250 3251 3252
3189 3192 3194 3196 3199 3201 3203 3205 3207 3209 3211 3213 3215 3217 3218 3220 3222 3223 3224 3225 3226 3228 3229 3230 3231 3232 3233 3234 3235 3237 3238 3239 3240 3241 3243 3244 3246 3247 3248 3248 3249 3251
3187 3189 3191 3193 3196 3198 3200 3203 3205 3207 3208 3210 3213 3214 3216 3218 3220 3221 3222 3223 3224 3226 3227 3228 3229 3230 3231 3232 3233 3234 3235 3237 3238 3239 3241 3242 3244 3245 3246 3246 3248 3249
3184 3186 3188 3191 3193 3196 3198 3201 3202 3204 3206 3208 3210 3212 3214 3216 3217 3219 3220 3221 3223 3224 3225 3226 3227 3228 3229 3230 3231 3232 3233 3234 3236 3237 3238 3240 3241 3243 3243 3244 3246 3247
3181 3183 3185 3188 3191 3193 3196 3198 3200 3202 3204 3206 3208 3210 3212 3214 3215 3217 3218 3219 3221 3222 3224 3225 3226 3226 3227 3228 3229 3230 3231 3232 3233 3235 3236 3238 3239 3240 3241 3242 3244 3245
3178 3180 3183 3186 3188 3191 3193 3195 3197 3200 3202 3204 3206 3207 3209 3211 3213 3214 3216 3218 3219 3220 3222 3223 3223 3224 3225 3226 3226 3227 3229 3230 3232 3233 3235 3236 3237 3238 3239 3240 3242 3243
3175 3178 3181 3184 3186 3188 3191 3193 3195 3197 3199 3201 3203 3205 3207 3209 3210 3212 3214 3215 3216 3218 3219 3220 3221 3222 3223 3224 3225 3226 3227 3228 3230 3232 3233 3234 3236 3237 3238 3239 3240 3241
3173 3175 3178 3181 3183 3185 3188 3190 3192 3194 3196 3199 3200 3202 3204 3206 3208 3209 3211 3212 3214 3215 3216 3217 3218 3220 3221 3222 3223 3224 3225 3227 3228 3230 3231 3233 3234 3235 3236 3237 3238 3239
3170 3173 3176 3178 3180 3182 3185 3187 3189 3191 3194 3196 3198 3200 3202 3203 3205 3206 3208 3209 3211 3212 3214 3215 3216 3217 3219 3220 3221 3223 3224 3225 3226 3228 3230 3231 3232 3233 3234 3235 3236 3237
3168 3170 3173 3175 3177 3180 3182 3184 3186 3189 3191 3193 3195 3197 3199 3201 3202 3203 3205 3207 3208 3209 3211 3212 3213 3215 3217 3218 3220 3221 3222 3223 3225 3226 3227 3229 3230 3231 3232 3233 3234 3235
3165 3167 3170 3172 3174 3177 3179 3181 3184 3186 3188 3190 3192 3194 3196 3198 3199 3200 3202 3204 3205 3207 3208 3209 3211 3213 3215 3216 3218 3219 3220 3222 3223 3224 3225 3226 3227 3229 3230 3231 3232 3233
3162 3164 3167 3169 3171 3174 3176 3178 3180 3183 3185 3187 3189 3192 3193 3195 3196 3198 3200 3201 3202 3204 3205 3207 3209 3211 3213 3214 3216 3217 3218 3220 3221 3222 3223 3224 3225 3226 3228 3229 3229 3230
3159 3162 3164 3166 3169 3171 3173 3175 3177 3180 3182 3184 3186 3188 3190 3191 3193 3195 3197 3198 3200 3201 3203 3205 3206 3208 3210 3212 3214 3215 3216 3217 3219 3220 3220 3221 3223 3224 3225 3226 3227 3228
3157 3159 3162 3164 3166 3168 3170 3173 3174 3177 3179 3181 3183 3185 3187 3188 3191 3192 3194 3195 3197 3199 3200 3202 3204 3206 3208 3209 3211 3212 3213 3214 3215 3217 3217 3219 3220 3221 3222 3223 3224 3225
3154 3157 3159 3161 3164 3166 3167 3169 3171 3174 3176 3178 3180 3182 3183 3185 3187 3189 3191 3192 3194 3196 3197 3199 3201 3203 3205 3206 3208 3209 3210 3211 3212 3213 3214 3215 3217 3218 3219 3220 3221 3221
3152 3154 3157 3159 3161 3163 3165 3167 3169 3171 3173 3175 3177 3178 3180 3182 3184 3186 3188 3190 3191 3193 3194 3196 3198 3200 3202 3203 3205 3205 3206 3207 3209 3210 3210 3212 3213 3215 3216 3217 3218 3218
3150 3152 3155 3157 3159 3161 3163 3165 3167 3169 3171 3172 3174 3176 3177 3179 3181 3183 3185 3186 3188 3189 3191 3193 3195 3197 3198 3200 3201 3202 3203 3204 3205 3206 3206 3208 3210 3211 3212 3213 3214 3215
3147 3150 3152 3154 3156 3158 3161 3163 3165 3167 3168 3170 3171 3173 3175 3177 3178 3180 3181 3183 3185 3186 3188 3189 3191 3193 3194 3196 3197 3198 3199 3200 3201 3202 3203 3204 3206 3208 3209 3209 3210 3212
3144 3147 3149 3151 3153 3156 3158 3160 3162 3164 3166 3167 3169 3171 3173 3174 3176 3177 3178 3180 3182 3183 3184 3186 3187 3189 3191 3192 3193 3194 3195 3196 3197 3198 3199 3201 3203 3204 3205 3206 3206 3208